Weather in Ilim-Gora

Russia / Penza Oblast     52°47′35″N   46°56′02″E
temp.,
°C
wind,
m/s
gust,
m/s
humid.,
%
clouds,
%
prec.,
mm/h
press.,
hPa
HPBL,
m
7 march, sun
sun700:00−13wsw129625 0.0 101321
03:00−14wnw129627 0.0 101320
06:00−11w349695 0.3 1013116
09:00−11wnw469586 0.3 1014227
12:00−8wsw588936 0.0 1013504
15:00−8sw6108941 0.0 1011743
18:00−8ssw81592100 0.1 1008790
21:00−6sw101793100 1.2 10051052
8 march, mon
mon800:00−5sw101794100 0.8 10011072
03:00−4sw101892100 1.7 999977
06:00−4w91584100 0.4 10001139
09:00−6w8138665 0.4 1003942
12:00−5wsw712800 0.0 10041156
15:00−3sw598242 0.0 1004976
18:00−6ssw4895100 0.0 1003160
21:00−7wsw5119589 0.1 1005264
9 march, tue
tue900:00−9w499523 0.0 1006211
03:00−13wnw499634 0.0 1007143
06:00−16wnw349732 0.0 100943
09:00−13wnw469516 0.0 1011176
12:00−9wnw46890 0.0 1011356
15:00−7wnw468641 0.0 1012639
18:00−11wnw449386 0.1 101281
21:00−14nw469691 0.1 1014110
10 march, wed
wed1000:00−17nw349776 0.0 101450
03:00−18nw479779 0.0 1016114
06:00−21nw47980 0.0 1017134
09:00−18nnw589524 0.0 1018287
12:00−15nw578791 0.0 1020696
15:00−15nw578695 0.1 1020869
18:00−18nw51092100 0.1 1022308
21:00−24nw479793 0.1 1024141
11 march, thu
thu1100:00−27nw47970 0.0 1026102
03:00−28nw47970 0.0 102799
06:00−28nw46950 0.0 102885
09:00−22wnw58920 0.0 1029236
12:00−16wnw69870 0.0 1028376
15:00−13wnw610870 0.0 1028470
18:00−16wnw611900 0.0 1028238
21:00−18wnw510940 0.0 1030160